[[{"header":{"parameterUnit":"m.s-1","parameterCategory":1,"la1":30.2991,"la2":30.254,"lo1":-89.0895,"lo2":-89.0444,"dy":0.0017,"dx":0.0017,"nx":28,"ny":28,"refTime":"2024-12-13T03:00:00:Z","depth":0,"parameterNumber":2,"parameterNumberName":"U-component_of_WINDS"},"data":[0,0,0,0,0,0,0,0,0,0,0,0,0,0,0,0,0,0,0,0,0,0,0,0,0,0,0,0,0,0,0,0,0,0,0,0,0,0,0,0,0,0,0,0,0,0,0,0,0,0,0,0,0,0,0,0,0,0,-5.3107,-5.3108,0,-5.3209,-5.321,-5.3211,-5.3093,-5.3088,-5.3084,-5.308,-5.3186,-5.3193,-5.32,0,0,0,0,0,0,0,0,0,0,0,0,0,-5.2811,-5.2817,-5.3107,-5.3108,-5.3109,-5.3209,-5.321,-5.3212,-5.3094,-5.3088,-5.3083,-5.3078,-5.3184,-5.3192,-5.32,0,0,0,0,0,0,0,0,0,0,0,0,0,-5.2929,-5.2819,-5.3106,-5.3062,-5.3059,-5.3209,-5.321,-5.3212,-5.3095,-5.3088,-5.3081,-5.3075,-5.3181,-5.3191,-5.3202,-5.34,0,0,-5.3234,-5.3238,0,0,0,0,0,0,0,0,-5.2922,-5.294,-5.3068,-5.3066,-5.3063,-5.3131,-5.3145,-5.3275,-5.3096,-5.3081,-5.308,-5.3072,-5.3173,-5.3184,-5.3218,-5.3405,-5.3409,-5.3234,-5.3241,-5.3245,-5.3248,0,0,0,0,0,0,0,-5.2914,-5.2935,-5.3147,-5.307,-5.3067,-5.3038,-5.3047,-5.3169,-5.3164,-5.3082,-5.3074,-5.3087,-5.3171,-5.3208,-5.322,-5.3411,-5.3234,-5.3243,-5.325,-5.3254,-5.3766,-5.3773,0,0,0,0,0,0,-5.2911,-5.2929,-5.3144,-5.315,-5.2975,-5.3049,-5.3059,-5.3116,-5.3162,-5.3162,-5.3093,-5.3082,-5.3194,-5.3207,-5.3223,-5.3458,-5.3245,-5.3255,-5.3261,-5.3759,-5.3767,-5.3775,0,0,0,0,0,0,-5.2905,-5.2931,-5.314,-5.3037,-5.3062,-5.3061,-5.3126,-5.3122,-5.3159,-5.317,-5.3169,-5.3132,-5.3189,-5.3208,-5.3357,-5.346,-5.326,-5.3269,-5.375,-5.3761,-5.3771,-5.3931,0,0,0,0,0,0,-5.2897,-5.293,-5.3005,-5.304,-5.3068,-5.3272,-5.3132,-5.3128,-5.3177,-5.3163,-5.3206,-5.3207,-5.3185,-5.3342,-5.3367,-5.3471,-5.3277,-5.3741,-5.3755,-5.3768,-5.3916,-5.3946,-5.3971,0,0,0,0,0,-5.2887,-5.3046,-5.3009,-5.3036,-5.3161,-5.3278,-5.3294,-5.3265,-5.3186,-5.3261,-5.3269,-5.3206,-5.3445,-5.3358,-5.3385,-5.3494,-5.3734,-5.3751,-5.3767,-5.3904,-5.394,-5.3971,0,0,0,0,0,0,-5.3023,-5.3049,-5.3009,-5.3184,-5.323,-5.3258,-5.3352,-5.3304,-5.3373,-5.3357,-5.3318,-5.3329,-5.3487,-5.3505,-5.3408,-5.3689,-5.3576,-5.3599,-5.3671,-5.3706,-5.3733,-5.3725,-5.3286,0,0,0,0,0,-5.3073,-5.3166,-5.3184,-5.3336,-5.3361,-5.3353,-5.3403,-5.3377,-5.3423,-5.3441,-5.3459,-5.3507,-5.3593,-5.365,-5.3729,-5.3918,-5.3926,-5.4007,-5.4034,-5.4056,-5.4077,-5.4179,-5.4215,-5.3829,-5.3829,-5.3829,0,0,-5.3178,-5.3204,-5.3265,-5.3364,-5.3397,-5.3494,-5.337,-5.3478,-5.355,-5.3458,-5.3599,-5.3615,-5.3665,-5.3835,-5.391,-5.3855,-5.4185,-5.4078,-5.4095,-5.4104,-5.42,-5.4236,-5.4269,-5.3841,-5.3839,-5.3837,0,0,-5.3419,-5.3448,-5.3579,-5.3614,-5.3664,-5.3657,-5.3689,-5.3725,-5.3731,-5.3873,-5.3806,-5.3891,-5.4039,-5.4078,-5.4117,-5.4374,-5.4319,-5.4401,-5.4545,-5.4645,-5.4675,-5.4702,-5.4794,-5.4828,-5.4421,-5.4422,-5.4422,0,-5.3544,-5.3687,-5.3652,-5.3765,-5.3811,-5.3732,-5.3864,-5.39,-5.3974,-5.4008,-5.3944,-5.4129,-5.4157,-5.4336,-5.4398,-5.4432,-5.4468,-5.4396,-5.4674,-5.47,-5.4725,-5.4812,-5.4847,-5.4431,-5.443,-5.4429,-5.4428,0,-5.3838,-5.3938,-5.4038,-5.4111,-5.4168,-5.4291,-5.4275,-5.4337,-5.4306,-5.4307,-5.4452,-5.4483,-5.4568,-5.4608,-5.4579,-5.4783,-5.4747,-5.4679,-5.4566,-5.4772,-5.4853,-5.4887,-5.4445,-5.4442,-5.4439,-5.4436,0,0,-5.4168,-5.422,-5.4258,-5.429,-5.434,-5.4418,-5.4537,-5.4619,-5.4674,-5.4728,-5.4827,-5.4955,-5.4892,-5.4937,-5.4911,-5.4999,-5.5202,-5.4921,-5.4921,-5.4973,-5.543,-5.5481,-5.552,-5.5166,-5.5172,-5.5177,-5.5426,0,-5.441,-5.4616,-5.4588,-5.4786,-5.4879,-5.4805,-5.4909,-5.4951,-5.4955,-5.5035,-5.5039,-5.5131,-5.5041,-5.5068,-5.5151,-5.516,-5.5293,-5.5141,-5.5259,-5.5263,-5.5249,-5.5563,-5.5617,-5.5851,-5.5458,-5.5463,-5.5467,0,-5.472,-5.4786,-5.4993,-5.5029,-5.5067,-5.5161,-5.5234,-5.5311,-5.5358,-5.5355,-5.5406,-5.5364,-5.5484,-5.5368,-5.5534,-5.5431,-5.5477,-5.5489,-5.5497,-5.5507,-5.5378,-5.5583,-5.5924,-5.596,-5.5517,-5.5513,-5.5509,0,-5.4941,-5.5081,-5.5223,-5.5253,-5.5299,-5.5367,-5.5389,-5.5429,-5.5481,-5.5545,-5.5579,-5.5657,-5.57,-5.5762,-5.5743,-5.566,-5.5913,-5.5795,-5.5914,-5.5915,-5.5971,-5.5968,-5.6326,-5.6001,-5.6,-5.5999,-5.5999,0,-5.5215,-5.5345,-5.5323,-5.5411,-5.5554,-5.5521,-5.5665,-5.5678,-5.5714,-5.5804,-5.5745,-5.583,-5.58,-5.5883,-5.587,-5.6009,-5.6029,-5.603,-5.6025,-5.6036,-5.6036,-5.6066,-5.605,-5.6009,-5.6006,-5.6005,-5.6003,0,-5.5487,-5.5477,-5.5627,-5.5658,-5.5669,-5.5774,-5.58,-5.5883,-5.5882,-5.5996,-5.6021,-5.602,-5.6116,-5.6103,-5.621,-5.6201,-5.6375,-5.635,-5.6359,-5.6354,-5.6474,-5.6463,-5.6864,-5.6916,-5.6556,-5.656,-5.6563,0,-5.5662,-5.5761,-5.5802,-5.5858,-5.5885,-5.5975,-5.6027,-5.5999,-5.6056,-5.6117,-5.6193,-5.6283,-5.6354,-5.6511,-5.652,-5.6602,-5.6578,-5.6713,-5.659,-5.6598,-5.6581,-5.6576,-5.6586,-5.6738,-5.6742,-5.6745,-5.6748,0,-5.5976,-5.5966,-5.6044,-5.6121,-5.6185,-5.6244,-5.6297,-5.6346,-5.6323,-5.639,-5.6487,-5.6542,-5.6651,-5.6742,-5.6819,-5.6842,-5.6793,-5.6787,-5.6819,-5.6831,-5.6833,-5.6834,-5.6426,-5.6778,-5.6775,-5.6773,-5.6771,-5.677,-5.6205,-5.6289,-5.6332,-5.6421,-5.6458,-5.6509,-5.6588,-5.6598,-5.6678,-5.6764,-5.6743,-5.6853,-5.6898,-5.6996,-5.7027,-5.7113,-5.7064,-5.711,-5.7122,-5.7134,-5.7149,-5.6819,-5.7127,-5.7126,-5.7125,-5.7125,-5.7124,0,-5.6516,-5.654,-5.6622,-5.6698,-5.6769,-5.6715,-5.6771,-5.6833,-5.6931,-5.6977,-5.7048,-5.716,-5.7247,-5.7264,-5.7348,-5.7414,-5.7393,-5.7437,-5.7432,-5.7438,-5.7188,-5.7152,-5.7452,-5.7452,-5.7452,-5.7452,-5.7452,-5.7452,-5.6686,-5.6826,-5.6822,-5.698,-5.7002,-5.7109,-5.7146,-5.7194,-5.723,-5.7358,-5.743,-5.744,-5.7475,-5.7561,-5.7639,-5.7642,-5.7676,-5.7729,-5.7723,-5.7489,-5.7456,-5.7425,-5.7391,-5.7737,-5.7737,-5.7967,-5.7969,-5.797]},{"header":{"parameterUnit":"m.s-1","parameterCategory":1,"la1":30.2991,"la2":30.254,"lo1":-89.0895,"lo2":-89.0444,"dy":0.0017,"dx":0.0017,"nx":28,"ny":28,"refTime":"2024-12-13T03:00:00:Z","depth":0,"parameterNumber":3,"parameterNumberName":"V-component_of_WINDS"},"data":[0,0,0,0,0,0,0,0,0,0,0,0,0,0,0,0,0,0,0,0,0,0,0,0,0,0,0,0,0,0,0,0,0,0,0,0,0,0,0,0,0,0,0,0,0,0,0,0,0,0,0,0,0,0,0,0,0,0,-1.2432,-1.2431,0,-1.2389,-1.2388,-1.2388,-1.2345,-1.2345,-1.2344,-1.2344,-1.23,-1.2299,-1.2299,0,0,0,0,0,0,0,0,0,0,0,0,0,-1.2476,-1.2475,-1.2432,-1.2431,-1.2431,-1.2389,-1.2388,-1.2388,-1.2346,-1.2345,-1.2344,-1.2344,-1.23,-1.2299,-1.2299,0,0,0,0,0,0,0,0,0,0,0,0,0,-1.2447,-1.2475,-1.2432,-1.2405,-1.2402,-1.2389,-1.2388,-1.2387,-1.2346,-1.2345,-1.2344,-1.2343,-1.23,-1.23,-1.2299,-1.2309,0,0,-1.2296,-1.2295,0,0,0,0,0,0,0,0,-1.2449,-1.2445,-1.2409,-1.2406,-1.2403,-1.2372,-1.2387,-1.2361,-1.2346,-1.2367,-1.2344,-1.2343,-1.2324,-1.2321,-1.2315,-1.2307,-1.2305,-1.2295,-1.2295,-1.2294,-1.2294,0,0,0,0,0,0,0,-1.2451,-1.2447,-1.2415,-1.2409,-1.2405,-1.2394,-1.2389,-1.2382,-1.2351,-1.2365,-1.2362,-1.2357,-1.2323,-1.2316,-1.2314,-1.2304,-1.2295,-1.2295,-1.2294,-1.2294,-1.2299,-1.23,0,0,0,0,0,0,-1.2457,-1.2449,-1.2416,-1.2413,-1.2424,-1.2394,-1.2388,-1.2383,-1.2351,-1.2345,-1.2358,-1.2356,-1.2318,-1.2315,-1.2312,-1.232,-1.2294,-1.2294,-1.2293,-1.2299,-1.23,-1.23,0,0,0,0,0,0,-1.2458,-1.2454,-1.2418,-1.243,-1.2425,-1.2394,-1.2388,-1.2382,-1.2376,-1.2346,-1.234,-1.2357,-1.2318,-1.2314,-1.2309,-1.2318,-1.2293,-1.2292,-1.2298,-1.2299,-1.23,-1.2338,0,0,0,0,0,0,-1.2459,-1.2455,-1.2459,-1.2431,-1.2424,-1.2416,-1.2389,-1.2382,-1.2374,-1.237,-1.2343,-1.2338,-1.2317,-1.2311,-1.2308,-1.2316,-1.2291,-1.2297,-1.2298,-1.23,-1.2336,-1.234,-1.2344,0,0,0,0,0,-1.2461,-1.2473,-1.246,-1.2456,-1.2429,-1.2417,-1.2413,-1.2388,-1.2375,-1.2378,-1.2359,-1.2339,-1.2318,-1.2311,-1.2308,-1.2316,-1.2296,-1.2298,-1.2299,-1.2334,-1.234,-1.2344,0,0,0,0,0,0,-1.2504,-1.2468,-1.2454,-1.2456,-1.244,-1.241,-1.2414,-1.2395,-1.2383,-1.238,-1.2349,-1.2343,-1.2342,-1.2328,-1.2322,-1.2322,-1.2304,-1.2305,-1.2332,-1.2336,-1.2341,-1.2344,-1.2291,0,0,0,0,0,-1.2513,-1.2507,-1.2476,-1.2481,-1.2474,-1.2445,-1.2439,-1.2421,-1.2403,-1.2396,-1.2376,-1.2359,-1.2348,-1.2341,-1.233,-1.2334,-1.2326,-1.2337,-1.2341,-1.2345,-1.2346,-1.2344,-1.2348,-1.2306,-1.2306,-1.2306,0,0,-1.2533,-1.2513,-1.2511,-1.2489,-1.2474,-1.2467,-1.244,-1.2434,-1.2429,-1.2395,-1.2389,-1.2374,-1.2353,-1.2352,-1.235,-1.234,-1.2356,-1.2347,-1.235,-1.2349,-1.2347,-1.2351,-1.2354,-1.2307,-1.2307,-1.2307,0,0,-1.2566,-1.2551,-1.2552,-1.2537,-1.2515,-1.2495,-1.2496,-1.2468,-1.2456,-1.245,-1.2424,-1.2416,-1.2399,-1.2384,-1.2374,-1.2398,-1.2378,-1.2395,-1.2417,-1.2415,-1.2419,-1.2422,-1.2428,-1.2431,-1.2396,-1.2396,-1.2397,0,-1.2593,-1.2583,-1.2555,-1.255,-1.2541,-1.2509,-1.2509,-1.2496,-1.2472,-1.2465,-1.2454,-1.243,-1.2413,-1.2407,-1.2413,-1.2407,-1.2405,-1.2398,-1.2421,-1.2423,-1.2425,-1.2431,-1.2434,-1.2399,-1.2398,-1.2398,-1.2398,0,-1.2616,-1.2609,-1.2613,-1.2588,-1.2579,-1.2577,-1.2549,-1.2542,-1.2524,-1.2506,-1.2498,-1.2477,-1.246,-1.2457,-1.244,-1.2448,-1.2442,-1.2426,-1.2407,-1.2432,-1.2437,-1.2439,-1.2401,-1.2401,-1.24,-1.24,0,0,-1.2676,-1.2635,-1.2636,-1.2624,-1.2596,-1.2589,-1.2585,-1.2567,-1.2561,-1.2545,-1.2539,-1.2524,-1.2508,-1.2497,-1.2478,-1.2477,-1.2495,-1.2461,-1.246,-1.2467,-1.2499,-1.2511,-1.2514,-1.2482,-1.2482,-1.2482,-1.2501,0,-1.2702,-1.2693,-1.2667,-1.2665,-1.2657,-1.2625,-1.2621,-1.2603,-1.2585,-1.2574,-1.2554,-1.2543,-1.2524,-1.2517,-1.2515,-1.2493,-1.2501,-1.2492,-1.2475,-1.2475,-1.2481,-1.2517,-1.2529,-1.2548,-1.2503,-1.2503,-1.2503,0,-1.2733,-1.2717,-1.2714,-1.2684,-1.2679,-1.2676,-1.2656,-1.2647,-1.2625,-1.2612,-1.2598,-1.2576,-1.2568,-1.255,-1.2538,-1.2532,-1.2524,-1.2512,-1.2512,-1.2509,-1.249,-1.2514,-1.2553,-1.2556,-1.2506,-1.2506,-1.2506,0,-1.2774,-1.2752,-1.2747,-1.2737,-1.2703,-1.2701,-1.2686,-1.2663,-1.2653,-1.2636,-1.2629,-1.2611,-1.2601,-1.2587,-1.256,-1.255,-1.255,-1.2531,-1.2538,-1.2539,-1.2539,-1.2539,-1.2577,-1.2536,-1.2535,-1.2535,-1.2535,0,-1.2806,-1.2805,-1.2765,-1.2761,-1.2759,-1.2728,-1.2726,-1.2708,-1.2687,-1.2679,-1.2651,-1.2644,-1.2609,-1.2598,-1.2577,-1.2568,-1.2565,-1.2553,-1.2547,-1.2555,-1.2556,-1.2548,-1.2546,-1.2536,-1.2536,-1.2536,-1.2536,0,-1.2852,-1.2825,-1.2817,-1.2784,-1.2776,-1.2775,-1.2746,-1.2741,-1.272,-1.271,-1.2706,-1.2674,-1.2658,-1.263,-1.2607,-1.2592,-1.2588,-1.2579,-1.2596,-1.2592,-1.26,-1.2599,-1.2633,-1.2635,-1.2594,-1.2594,-1.2594,0,-1.2874,-1.2872,-1.2838,-1.2831,-1.2817,-1.2805,-1.2795,-1.2764,-1.2754,-1.2727,-1.2724,-1.2707,-1.2691,-1.2667,-1.2641,-1.2622,-1.2612,-1.2625,-1.2609,-1.2616,-1.261,-1.261,-1.2609,-1.2629,-1.2629,-1.263,-1.263,0,-1.2915,-1.2901,-1.2887,-1.2868,-1.2856,-1.2839,-1.2821,-1.2816,-1.2781,-1.2771,-1.2754,-1.2742,-1.2717,-1.2699,-1.2676,-1.266,-1.2639,-1.2635,-1.2635,-1.2643,-1.2652,-1.2646,-1.2604,-1.2635,-1.2634,-1.2634,-1.2634,-1.2633,-1.2948,-1.2944,-1.2919,-1.2904,-1.2887,-1.287,-1.2863,-1.2841,-1.2826,-1.2804,-1.2786,-1.2771,-1.2746,-1.2713,-1.2697,-1.2684,-1.2674,-1.2675,-1.2675,-1.2676,-1.2678,-1.2655,-1.268,-1.268,-1.2679,-1.2679,-1.2679,0,-1.2986,-1.2968,-1.2954,-1.2929,-1.2917,-1.2897,-1.2876,-1.2866,-1.2853,-1.2831,-1.2816,-1.2795,-1.2777,-1.2749,-1.2728,-1.2722,-1.2712,-1.2718,-1.2718,-1.2714,-1.2689,-1.269,-1.2727,-1.2727,-1.2726,-1.2726,-1.2726,-1.2726,-1.3005,-1.2996,-1.2979,-1.2961,-1.2943,-1.2927,-1.2916,-1.29,-1.2882,-1.2861,-1.2845,-1.2827,-1.2802,-1.2779,-1.276,-1.2752,-1.2745,-1.2754,-1.2743,-1.272,-1.2716,-1.2712,-1.2712,-1.2753,-1.2753,-1.2769,-1.2769,-1.2769]}]]